• In Russia
  • List of Countries
  • For 7 days
  • Water Temperature
  • Satellite Maps
  • Weather Map
  • Weather Widgets
  • user-avatar
    Login

    Hourly Weather Wlora

    Today, 24 September, Sunday

    Time Temperature Precipitation Wind Pressure Humidity
    00:00 +19°C° 0 mm 1 mps 765 mmHg 63%
    01:00 +19°C° 0 mm 1 mps 765 mmHg 63%
    02:00 +19°C° 0 mm 1 mps 764 mmHg 63%
    03:00 +19°C° 0 mm 1 mps 764 mmHg 63%
    04:00 +18°C° 0 mm 1 mps 764 mmHg 63%
    05:00 +19°C° 0 mm 1 mps 764 mmHg 61%
    06:00 +19°C° 0 mm 2 mps 764 mmHg 59%
    07:00 +20°C° 0 mm 2 mps 764 mmHg 57%
    08:00 +21°C° 0 mm 2 mps 764 mmHg 51%
    09:00 +24°C° 0 mm 3 mps 764 mmHg 45%
    10:00 +26°C° 0 mm 3 mps 764 mmHg 39%
    11:00 +26°C° 0 mm 3 mps 764 mmHg 39%
    12:00 +26°C° 0 mm 4 mps 763 mmHg 38%
    13:00 +27°C° 0 mm 4 mps 763 mmHg 38%
    14:00 +27°C° 0 mm 4 mps 763 mmHg 40%
    15:00 +26°C° 0 mm 4 mps 763 mmHg 42%
    16:00 +26°C° 0 mm 4 mps 762 mmHg 44%
    17:00 +25°C° 0 mm 4 mps 762 mmHg 50%
    18:00 +22°C° 0 mm 4 mps 762 mmHg 56%
    19:00 +21°C° 0 mm 4 mps 762 mmHg 62%
    20:00 +20°C° 0.1 mm 4 mps 762 mmHg 63%
    21:00 +20°C° 0.1 mm 3 mps 763 mmHg 65%
    22:00 +20°C° 0.1 mm 3 mps 763 mmHg 66%
    23:00 +19°C° 0.3 mm 4 mps 762 mmHg 66%

    Tomorrow, 25 September, Monday

    Time Temperature Precipitation Wind Pressure Humidity
    00:00 +19°C° 0.3 mm 4 mps 762 mmHg 67%
    01:00 +19°C° 0.3 mm 4 mps 762 mmHg 67%
    02:00 +19°C° 0.4 mm 4 mps 762 mmHg 66%
    03:00 +19°C° 0.4 mm 4 mps 762 mmHg 65%
    04:00 +19°C° 0.4 mm 4 mps 762 mmHg 64%
    05:00 +20°C° 0.7 mm 4 mps 762 mmHg 63%
    06:00 +20°C° 0.7 mm 4 mps 762 mmHg 61%
    07:00 +20°C° 0.7 mm 5 mps 762 mmHg 60%
    08:00 +21°C° 0.2 mm 5 mps 762 mmHg 57%
    09:00 +22°C° 0.2 mm 5 mps 762 mmHg 54%
    10:00 +23°C° 0.2 mm 5 mps 762 mmHg 51%
    11:00 +25°C° 0.3 mm 5 mps 762 mmHg 48%
    12:00 +26°C° 0.3 mm 5 mps 762 mmHg 45%
    13:00 +27°C° 0.3 mm 5 mps 762 mmHg 42%
    14:00 +26°C° 0.6 mm 4 mps 762 mmHg 47%
    15:00 +25°C° 0.6 mm 4 mps 762 mmHg 52%
    16:00 +25°C° 0.6 mm 4 mps 761 mmHg 57%
    17:00 +23°C° 0.3 mm 4 mps 762 mmHg 61%
    18:00 +22°C° 0.3 mm 3 mps 762 mmHg 66%
    19:00 +21°C° 0.3 mm 3 mps 762 mmHg 70%
    20:00 +20°C° 0.1 mm 3 mps 762 mmHg 71%
    21:00 +20°C° 0.1 mm 3 mps 762 mmHg 71%
    22:00 +20°C° 0.1 mm 3 mps 763 mmHg 72%
    23:00 +19°C° 0.1 mm 2 mps 762 mmHg 72%

    Day after tomorrow, 26 September, Tuesday

    Time Temperature Precipitation Wind Pressure Humidity
    00:00 +19°C° 0.1 mm 2 mps 762 mmHg 72%
    01:00 +19°C° 0.1 mm 2 mps 762 mmHg 73%
    02:00 +18°C° 0 mm 2 mps 762 mmHg 72%
    03:00 +18°C° 0 mm 2 mps 762 mmHg 72%
    04:00 +18°C° 0 mm 2 mps 762 mmHg 72%
    05:00 +19°C° 0 mm 2 mps 762 mmHg 69%
    06:00 +19°C° 0 mm 2 mps 762 mmHg 66%
    07:00 +20°C° 0 mm 2 mps 762 mmHg 64%
    08:00 +23°C° 0 mm 2 mps 763 mmHg 57%
    09:00 +25°C° 0 mm 1 mps 763 mmHg 50%
    10:00 +26°C° 0 mm 1 mps 763 mmHg 43%
    11:00 +27°C° 0 mm 1 mps 763 mmHg 43%
    12:00 +27°C° 0 mm 2 mps 763 mmHg 42%
    13:00 +28°C° 0 mm 2 mps 762 mmHg 42%
    14:00 +27°C° 0 mm 2 mps 762 mmHg 45%
    15:00 +26°C° 0 mm 2 mps 762 mmHg 49%
    16:00 +26°C° 0 mm 2 mps 762 mmHg 52%
    17:00 +24°C° 0 mm 2 mps 762 mmHg 58%
    18:00 +23°C° 0 mm 2 mps 763 mmHg 63%
    19:00 +21°C° 0 mm 3 mps 763 mmHg 68%
    20:00 +21°C° 0 mm 2 mps 763 mmHg 69%
    21:00 +20°C° 0 mm 2 mps 764 mmHg 69%
    22:00 +20°C° 0 mm 2 mps 764 mmHg 69%
    23:00 +20°C° 0 mm 2 mps 764 mmHg 69%

    27 September, Wednesday

    Time Temperature Precipitation Wind Pressure Humidity
    00:00 +20°C° 0 mm 2 mps 764 mmHg 69%
    01:00 +19°C° 0 mm 2 mps 764 mmHg 69%
    02:00 +19°C° 0 mm 2 mps 764 mmHg 69%
    03:00 +19°C° 0 mm 2 mps 764 mmHg 70%
    04:00 +19°C° 0 mm 2 mps 764 mmHg 70%
    05:00 +19°C° 0 mm 2 mps 764 mmHg 68%
    06:00 +20°C° 0 mm 2 mps 764 mmHg 66%
    07:00 +21°C° 0 mm 2 mps 764 mmHg 64%
    08:00 +23°C° 0 mm 2 mps 764 mmHg 57%
    09:00 +25°C° 0 mm 1 mps 764 mmHg 51%
    10:00 +27°C° 0 mm 1 mps 765 mmHg 45%
    11:00 +27°C° 0 mm 1 mps 764 mmHg 45%
    12:00 +27°C° 0 mm 2 mps 764 mmHg 44%
    13:00 +28°C° 0 mm 2 mps 764 mmHg 43%
    14:00 +27°C° 0 mm 2 mps 764 mmHg 46%
    15:00 +27°C° 0 mm 2 mps 764 mmHg 50%
    16:00 +26°C° 0 mm 2 mps 764 mmHg 53%
    17:00 +25°C° 0.1 mm 2 mps 764 mmHg 58%
    18:00 +23°C° 0.1 mm 2 mps 764 mmHg 64%
    19:00 +21°C° 0.1 mm 2 mps 765 mmHg 69%
    20:00 +21°C° 0 mm 2 mps 765 mmHg 70%
    21:00 +21°C° 0 mm 2 mps 765 mmHg 71%
    22:00 +20°C° 0 mm 2 mps 765 mmHg 72%
    23:00 +20°C° 0 mm 2 mps 765 mmHg 72%

    28 September, Thursday

    Time Temperature Precipitation Wind Pressure Humidity
    00:00 +20°C° 0 mm 2 mps 765 mmHg 72%
    01:00 +20°C° 0 mm 2 mps 765 mmHg 72%
    02:00 +19°C° 0 mm 2 mps 765 mmHg 72%
    03:00 +19°C° 0 mm 2 mps 765 mmHg 72%
    04:00 +19°C° 0 mm 2 mps 764 mmHg 73%
    05:00 +20°C° 0.1 mm 2 mps 765 mmHg 71%
    06:00 +20°C° 0.1 mm 2 mps 765 mmHg 69%
    07:00 +21°C° 0.1 mm 2 mps 765 mmHg 67%
    08:00 +23°C° 0.1 mm 2 mps 765 mmHg 61%
    09:00 +25°C° 0.1 mm 2 mps 765 mmHg 54%
    10:00 +27°C° 0.1 mm 1 mps 765 mmHg 48%
    11:00 +27°C° 0.1 mm 1 mps 765 mmHg 47%
    12:00 +27°C° 0.1 mm 2 mps 765 mmHg 46%
    13:00 +28°C° 0.1 mm 2 mps 765 mmHg 45%
    14:00 +27°C° 0.1 mm 2 mps 764 mmHg 49%
    15:00 +26°C° 0.1 mm 2 mps 764 mmHg 52%
    16:00 +25°C° 0.1 mm 2 mps 764 mmHg 56%
    17:00 +25°C° 0.1 mm 3 mps 764 mmHg 60%
    18:00 +24°C° 0.1 mm 3 mps 765 mmHg 64%
    19:00 +22°C° 0.1 mm 3 mps 765 mmHg 68%
    20:00 +22°C° 0 mm 3 mps 765 mmHg 68%
    21:00 +21°C° 0 mm 3 mps 765 mmHg 69%
    22:00 +21°C° 0 mm 3 mps 765 mmHg 69%
    23:00 +21°C° 0.2 mm 3 mps 765 mmHg 70%

    29 September, Friday

    Time Temperature Precipitation Wind Pressure Humidity
    00:00 +20°C° 0.2 mm 3 mps 765 mmHg 71%
    01:00 +20°C° 0.2 mm 2 mps 765 mmHg 72%
    02:00 +19°C° 0 mm 2 mps 765 mmHg 73%
    03:00 +19°C° 0 mm 2 mps 764 mmHg 74%
    04:00 +19°C° 0 mm 2 mps 764 mmHg 75%
    05:00 +19°C° 0.1 mm 3 mps 764 mmHg 73%
    06:00 +19°C° 0.1 mm 3 mps 764 mmHg 72%
    07:00 +20°C° 0.1 mm 3 mps 764 mmHg 70%
    08:00 +21°C° 0 mm 3 mps 764 mmHg 62%
    09:00 +24°C° 0 mm 2 mps 764 mmHg 55%
    10:00 +26°C° 0 mm 2 mps 764 mmHg 47%
    11:00 +26°C° 0.1 mm 2 mps 764 mmHg 45%
    12:00 +27°C° 0.1 mm 2 mps 764 mmHg 43%
    13:00 +27°C° 0.1 mm 2 mps 764 mmHg 41%
    14:00 +27°C° 0 mm 3 mps 764 mmHg 43%
    15:00 +26°C° 0 mm 3 mps 763 mmHg 46%
    16:00 +26°C° 0 mm 3 mps 763 mmHg 49%
    17:00 +24°C° 0.2 mm 3 mps 763 mmHg 52%
    18:00 +22°C° 0.2 mm 3 mps 764 mmHg 56%
    19:00 +21°C° 0.2 mm 3 mps 764 mmHg 59%
    20:00 +20°C° 0.1 mm 3 mps 764 mmHg 61%
    21:00 +20°C° 0.1 mm 3 mps 764 mmHg 63%
    22:00 +19°C° 0.1 mm 3 mps 764 mmHg 65%
    23:00 +19°C° 0.1 mm 3 mps 764 mmHg 66%
    Show more